GW2042 Weather Reports


Display with metric or nautical units.
time (UTC)temp
F
wind
direction
speed
MPH
gust
MPH
rain 1hr
in
rain 24hr
in
rain mn
in
humidity
%
barometer
mb
20260508080516 56 158 2.0 5.0 0.00 0.00 0.00 89 1014.7
20260508080029 56 159 2.0 5.0 0.00 0.00 0.00 90 1014.9
20260508075516 56 153 1.0 3.0 0.00 0.00 0.00 90 1015.0
20260508075021 56 128 0.0 1.0 0.00 0.00 0.00 91 1015.1
20260508074532 56 0 0.0 0.0 0.00 0.00 0.00 90 1015.4
20260508074016 56 0 0.0 0.0 0.00 0.00 0.00 89 1015.5
20260508073516 56 0 0.0 0.0 0.00 0.00 0.00 89 1015.4
20260508073035 56 0 0.0 0.0 0.00 0.00 0.00 89 1015.6
20260508072519 56 0 0.0 0.0 0.00 0.00 0.00 89 1015.7
20260508072016 56 0 0.0 0.0 0.00 0.00 0.00 89 1015.8
20260508071533 56 0 0.0 0.0 0.00 0.00 0.00 89 1015.9
20260508071018 56 0 0.0 0.0 0.00 0.00 0.00 89 1015.9
20260508070517 56 0 0.0 0.0 0.00 0.00 0.00 89 1016.0
20260508070034 55 0 0.0 0.0 0.00 0.00 0.00 90 1016.1
20260508065516 55 0 0.0 0.0 0.00 0.00 0.00 90 1016.1
20260508065017 55 0 0.0 0.0 0.00 0.00 0.00 91 1016.1
20260508064537 54 0 0.0 0.0 0.00 0.00 0.00 91 1016.1
20260508064016 54 0 0.0 0.0 0.00 0.00 0.00 91 1016.2
20260508063521 54 0 0.0 0.0 0.00 0.00 0.00 90 1016.1
20260508063057 54 0 0.0 0.0 0.00 0.00 0.00 90 1016.0
20260508062521 54 0 0.0 0.0 0.00 0.00 0.00 89 1015.9
20260508062015 54 0 0.0 0.0 0.00 0.00 0.00 90 1015.9
20260508061532 54 0 0.0 0.0 0.00 0.00 0.00 90 1016.0
20260508061016 54 0 0.0 0.0 0.00 0.00 0.00 89 1016.0
20260508060518 54 0 0.0 0.0 0.00 0.00 0.00 90 1016.1
20260508060031 54 0 0.0 0.0 0.00 0.00 0.00 90 1016.2
20260508055516 54 0 0.0 0.0 0.00 0.00 0.00 89 1016.2
20260508055013 55 0 0.0 0.0 0.00 0.00 0.00 89 1016.1
20260508054531 55 0 0.0 0.0 0.00 0.00 0.00 89 1016.1
20260508054016 55 0 0.0 0.0 0.00 0.00 0.00 88 1016.2
20260508053515 55 0 0.0 0.0 0.00 0.00 0.00 88 1016.2
20260508053043 56 0 0.0 0.0 0.00 0.00 0.00 87 1016.2
20260508052516 56 0 0.0 0.0 0.00 0.00 0.00 88 1016.2
20260508052020 56 0 0.0 0.0 0.00 0.00 0.00 88 1016.3
20260508051537 56 0 0.0 0.0 0.00 0.00 0.00 87 1016.2
20260508051016 56 0 0.0 0.0 0.00 0.00 0.00 86 1016.2
20260508050516 56 0 0.0 0.0 0.00 0.00 0.00 86 1016.2
20260508050032 57 0 0.0 0.0 0.00 0.00 0.00 85 1016.4
20260508045515 57 0 0.0 0.0 0.00 0.00 0.00 85 1016.6
20260508045017 57 0 0.0 0.0 0.00 0.00 0.00 85 1016.6
20260508044531 57 0 0.0 0.0 0.00 0.00 0.00 85 1016.6
20260508044014 57 0 0.0 0.0 0.00 0.00 0.00 85 1016.8
20260508043518 57 0 0.0 0.0 0.00 0.00 0.00 85 1016.8
20260508043030 57 0 0.0 0.0 0.00 0.00 0.00 84 1016.8
20260508042516 57 0 0.0 0.0 0.00 0.00 0.00 84 1016.6
20260508042022 58 0 0.0 1.0 0.00 0.00 0.00 83 1016.6
20260508041528 58 0 0.0 1.0 0.00 0.00 0.00 83 1016.7
20260508041016 58 0 0.0 1.0 0.00 0.00 0.00 83 1016.7
20260508040516 58 0 0.0 1.0 0.00 0.00 0.00 82 1016.7
20260508040032 58 0 0.0 0.0 0.00 0.00 0.00 82 1016.6
20260508035515 58 0 0.0 0.0 0.00 0.00 0.00 82 1016.6
20260508035018 58 0 0.0 1.0 0.00 0.00 0.00 81 1016.5
20260508034532 59 0 0.0 1.0 0.00 0.00 0.00 80 1016.4
20260508034016 59 0 0.0 2.0 0.00 0.00 0.00 80 1016.4
20260508033515 59 0 0.0 2.0 0.00 0.00 0.00 80 1016.6
20260508033034 59 128 0.0 0.0 0.00 0.00 0.00 80 1016.6
20260508032516 59 0 0.0 1.0 0.00 0.00 0.00 79 1016.3
20260508032014 59 0 0.0 1.0 0.00 0.00 0.00 80 1016.3
20260508031530 59 0 0.0 1.0 0.00 0.00 0.00 80 1016.2
20260508031016 59 0 0.0 1.0 0.00 0.00 0.00 79 1016.3
20260508030516 59 0 0.0 1.0 0.00 0.00 0.00 79 1016.2
20260508030036 59 0 0.0 2.0 0.00 0.00 0.00 79 1016.0
20260508025516 59 0 0.0 2.0 0.00 0.00 0.00 78 1015.9
20260508025016 59 128 0.0 2.0 0.00 0.00 0.00 77 1015.9
20260508024533 59 0 0.0 2.0 0.00 0.00 0.00 78 1015.9
20260508024017 59 128 0.0 2.0 0.00 0.00 0.00 78 1015.6
20260508023517 59 0 0.0 0.0 0.00 0.00 0.00 79 1015.4
20260508023036 59 0 0.0 0.0 0.00 0.00 0.00 79 1015.3
20260508022516 59 0 0.0 0.0 0.00 0.00 0.00 78 1015.5
20260508022016 59 0 0.0 0.0 0.00 0.00 0.00 77 1015.5
20260508021538 59 0 0.0 0.0 0.00 0.00 0.00 78 1015.6
20260508021022 59 0 0.0 0.0 0.00 0.00 0.00 77 1015.6
20260508020516 59 0 0.0 0.0 0.00 0.00 0.00 77 1015.6
20260508020033 60 0 0.0 0.0 0.00 0.00 0.00 76 1015.5
20260508015516 60 0 0.0 0.0 0.00 0.00 0.00 77 1015.4
20260508015016 60 0 0.0 1.0 0.00 0.00 0.00 77 1015.3
20260508014532 60 0 0.0 1.0 0.00 0.00 0.00 76 1015.4
20260508014016 60 0 0.0 1.0 0.00 0.00 0.00 75 1015.3
20260508013515 60 0 0.0 0.0 0.00 0.00 0.00 74 1015.4
20260508013035 60 0 0.0 1.0 0.00 0.00 0.00 74 1015.4
20260508012516 60 0 0.0 1.0 0.00 0.00 0.00 74 1015.4
20260508012016 61 0 0.0 1.0 0.00 0.00 0.00 72 1015.4
20260508011536 61 0 0.0 1.0 0.00 0.00 0.00 72 1015.4
20260508011016 61 0 0.0 3.0 0.00 0.00 0.00 73 1015.4
20260508010519 61 0 0.0 3.0 0.00 0.00 0.00 72 1015.5
20260508010050 61 0 0.0 2.0 0.00 0.00 0.00 71 1015.5
20260508005516 62 145 0.0 2.0 0.00 0.00 0.00 70 1015.5
20260508005016 62 0 0.0 2.0 0.00 0.00 0.00 69 1015.8
20260508004534 62 0 0.0 2.0 0.00 0.00 0.00 69 1015.6
20260508004016 62 0 0.0 1.0 0.00 0.00 0.00 68 1015.7
20260508003516 63 0 0.0 2.0 0.00 0.00 0.00 67 1015.6
20260508003031 63 0 0.0 4.0 0.00 0.00 0.00 66 1015.7
20260508002517 63 0 0.0 4.0 0.00 0.00 0.00 67 1015.7
20260508002016 63 130 1.0 4.0 0.00 0.00 0.00 64 1015.9
20260508001535 64 149 1.0 3.0 0.00 0.00 0.00 65 1015.6
20260508001016 64 121 1.0 6.0 0.00 0.00 0.00 64 1015.9
20260508000516 65 155 1.0 6.0 0.00 0.00 0.00 63 1015.9
20260508000031 65 163 1.0 4.0 0.00 0.00 0.00 63 1015.8
20260507235519 65 136 2.0 4.0 0.00 0.00 0.00 61 1015.9
20260507235015 65 136 1.0 5.0 0.00 0.00 0.00 63 1016.0
20260507234528 65 134 1.0 5.0 0.00 0.00 0.00 62 1016.1
20260507234015 65 134 2.0 5.0 0.00 0.00 0.00 63 1016.0
20260507233515 65 145 1.0 5.0 0.00 0.00 0.00 62 1016.1
20260507233037 65 126 0.0 7.0 0.00 0.00 0.00 63 1016.3
20260507232513 65 0 0.0 7.0 0.00 0.00 0.00 63 1016.3
20260507232020 65 0 0.0 5.0 0.00 0.00 0.00 64 1016.3
20260507231531 66 152 1.0 6.0 0.00 0.00 0.00 63 1016.4
20260507231014 66 135 2.0 6.0 0.00 0.00 0.00 62 1016.3
20260507230516 66 157 2.0 5.0 0.00 0.00 0.00 62 1016.4
20260507230048 66 163 1.0 5.0 0.00 0.00 0.00 61 1016.4
20260507225515 66 169 1.0 5.0 0.00 0.00 0.00 62 1016.4
20260507225015 66 159 1.0 4.0 0.00 0.00 0.00 62 1016.3
20260507224533 66 170 1.0 6.0 0.00 0.00 0.00 62 1016.4
20260507224015 66 126 2.0 6.0 0.00 0.00 0.00 61 1016.6
20260507223518 66 113 1.0 4.0 0.00 0.00 0.00 63 1016.6
20260507223104 66 131 1.0 4.0 0.00 0.00 0.00 61 1016.6
20260507222515 66 124 1.0 4.0 0.00 0.00 0.00 61 1016.6
20260507222014 66 0 0.0 6.0 0.00 0.00 0.00 61 1016.7
20260507221532 66 130 2.0 6.0 0.00 0.00 0.00 60 1016.5
20260507221016 66 150 2.0 6.0 0.00 0.00 0.00 61 1016.6
20260507220514 66 134 2.0 6.0 0.00 0.00 0.00 60 1016.7
20260507220032 67 134 2.0 5.0 0.00 0.00 0.00 60 1016.6
20260507215515 67 148 0.0 7.0 0.00 0.00 0.00 61 1016.4
20260507215014 66 0 1.0 7.0 0.00 0.00 0.00 62 1016.4
20260507214531 66 127 2.0 5.0 0.00 0.00 0.00 59 1016.6
20260507214015 66 120 1.0 6.0 0.00 0.00 0.00 61 1016.8
20260507213515 66 152 2.0 7.0 0.00 0.00 0.00 60 1016.8
20260507213031 66 184 2.0 7.0 0.00 0.00 0.00 60 1016.9
20260507212515 66 126 3.0 6.0 0.00 0.00 0.00 60 1016.8
20260507212017 66 160 1.0 7.0 0.00 0.00 0.00 61 1016.7
20260507211529 67 131 2.0 7.0 0.00 0.00 0.00 59 1016.9
20260507211014 67 162 2.0 8.0 0.00 0.00 0.00 58 1016.9
20260507210518 67 132 1.0 8.0 0.00 0.00 0.00 57 1016.9
20260507210049 67 113 2.0 6.0 0.00 0.00 0.00 59 1017.2
20260507205516 67 154 2.0 7.0 0.00 0.00 0.00 58 1017.1
20260507205015 67 148 2.0 7.0 0.00 0.00 0.00 58 1017.3
20260507204534 67 134 3.0 7.0 0.00 0.00 0.00 57 1017.2
20260507204015 67 164 1.0 5.0 0.00 0.00 0.00 59 1017.3
20260507203515 67 152 2.0 5.0 0.00 0.00 0.00 57 1017.5
20260507203040 67 147 2.0 5.0 0.00 0.00 0.00 56 1017.7
20260507202515 67 129 1.0 6.0 0.00 0.00 0.00 58 1017.7
20260507202021 68 121 2.0 6.0 0.00 0.00 0.00 55 1017.7
20260507201532 68 142 2.0 6.0 0.00 0.00 0.00 57 1017.7
20260507201020 68 132 1.0 8.0 0.00 0.00 0.00 55 1017.5
20260507200516 68 127 3.0 8.0 0.00 0.00 0.00 52 1017.6
20260507200049 68 118 1.0 6.0 0.00 0.00 0.00 54 1017.8
20260507195515 68 0 1.0 8.0 0.00 0.00 0.00 54 1017.8
20260507195016 69 128 2.0 8.0 0.00 0.00 0.00 52 1017.8
20260507194531 69 162 1.0 4.0 0.00 0.00 0.00 56 1017.9
20260507194015 68 90 1.0 9.0 0.00 0.00 0.00 55 1017.7
20260507193516 68 73 1.0 9.0 0.00 0.00 0.00 54 1017.8
20260507193042 68 86 1.0 5.0 0.00 0.00 0.00 54 1017.8
20260507192515 68 0 1.0 10.0 0.00 0.00 0.00 53 1017.8
20260507192016 69 0 1.0 10.0 0.00 0.00 0.00 54 1017.9
20260507191531 69 96 2.0 10.0 0.00 0.00 0.00 55 1017.7
20260507191015 69 90 2.0 6.0 0.00 0.00 0.00 54 1017.7
20260507190516 68 86 1.0 5.0 0.00 0.00 0.00 55 1017.8
20260507190035 68 344 2.0 6.0 0.00 0.00 0.00 54 1018.0
20260507185516 69 49 2.0 6.0 0.00 0.00 0.00 53 1018.1
20260507185016 69 74 1.0 10.0 0.00 0.00 0.00 54 1018.2
20260507184535 69 341 2.0 10.0 0.00 0.00 0.00 52 1018.3
20260507184017 69 46 1.0 9.0 0.00 0.00 0.00 53 1018.5
20260507183517 70 136 2.0 9.0 0.00 0.00 0.00 49 1018.6
20260507183038 72 70 2.0 9.0 0.00 0.00 0.00 53 1018.7
20260507182516 71 360 3.0 9.0 0.00 0.00 0.00 51 1018.6
20260507182017 70 119 3.0 10.0 0.00 0.00 0.00 51 1018.7
20260507181534 71 80 3.0 10.0 0.00 0.00 0.00 50 1018.6
20260507181019 72 18 2.0 10.0 0.00 0.00 0.00 49 1018.7
20260507180517 71 65 3.0 8.0 0.00 0.00 0.00 52 1018.6
20260507180031 71 92 1.0 8.0 0.00 0.00 0.00 52 1018.7
20260507175541 69 86 2.0 9.0 0.00 0.00 0.00 56 1018.6
20260507175015 69 321 3.0 9.0 0.00 0.00 0.00 53 1018.7
20260507174532 70 309 3.0 9.0 0.00 0.00 0.00 52 1018.8
20260507174016 69 52 4.0 13.0 0.00 0.00 0.00 54 1018.8
20260507173515 69 81 3.0 13.0 0.00 0.00 0.00 55 1018.8
20260507173037 69 119 2.0 10.0 0.00 0.00 0.00 53 1018.8
20260507172515 67 16 2.0 13.0 0.00 0.00 0.00 55 1018.9
20260507172016 67 65 3.0 13.0 0.00 0.00 0.00 54 1019.1
20260507171532 66 355 4.0 12.0 0.00 0.00 0.00 54 1018.9
20260507171016 66 105 4.0 9.0 0.00 0.00 0.00 56 1019.0
20260507170517 67 338 2.0 8.0 0.00 0.00 0.00 59 1019.1
20260507170031 66 21 2.0 10.0 0.00 0.00 0.00 59 1019.2
20260507165515 65 34 2.0 10.0 0.00 0.00 0.00 60 1019.2
20260507165015 65 65 1.0 6.0 0.00 0.00 0.00 62 1019.3
20260507164531 64 49 2.0 6.0 0.00 0.00 0.00 61 1019.3
20260507164016 65 272 2.0 8.0 0.00 0.00 0.00 62 1019.7
20260507163516 64 0 2.0 9.0 0.00 0.00 0.00 61 1019.6
20260507163031 65 68 2.0 9.0 0.00 0.00 0.00 64 1019.6
20260507162515 64 325 3.0 9.0 0.00 0.00 0.00 62 1020.0
20260507162018 64 37 1.0 6.0 0.00 0.00 0.00 63 1020.1
20260507161532 63 87 2.0 9.0 0.00 0.00 0.00 63 1020.2
20260507161015 63 75 3.0 9.0 0.00 0.00 0.00 65 1020.2
20260507160518 63 355 1.0 7.0 0.00 0.00 0.00 67 1020.2
20260507160037 63 0 2.0 7.0 0.00 0.00 0.00 68 1020.1
20260507155517 62 88 1.0 7.0 0.00 0.00 0.00 67 1020.0
20260507155019 62 344 1.0 9.0 0.00 0.00 0.00 68 1020.0
20260507154533 62 18 2.0 9.0 0.00 0.00 0.00 69 1019.9
20260507154016 62 44 2.0 7.0 0.00 0.00 0.00 69 1020.0
20260507153515 61 327 2.0 8.0 0.00 0.00 0.00 67 1020.0
20260507153035 61 78 2.0 8.0 0.00 0.00 0.00 69 1020.1
20260507152515 61 67 1.0 7.0 0.00 0.00 0.00 68 1019.9
20260507152016 60 74 2.0 7.0 0.00 0.00 0.00 70 1019.9
20260507151531 60 15 1.0 7.0 0.00 0.00 0.00 70 1019.9
20260507151015 60 5 1.0 7.0 0.00 0.00 0.00 73 1020.0
20260507150515 60 92 1.0 6.0 0.00 0.00 0.00 73 1020.1
20260507150040 60 0 1.0 7.0 0.00 0.00 0.00 75 1020.1
20260507145517 59 41 1.0 7.0 0.00 0.01 0.00 75 1020.2
20260507145016 59 355 2.0 8.0 0.00 0.01 0.00 74 1020.2
20260507144532 59 40 1.0 9.0 0.00 0.01 0.00 74 1020.3
20260507144015 59 0 2.0 9.0 0.00 0.01 0.00 74 1020.4
20260507143515 58 0 1.0 10.0 0.00 0.01 0.00 74 1020.4
20260507143031 58 0 1.0 10.0 0.00 0.01 0.00 74 1020.4
20260507142515 59 5 1.0 8.0 0.00 0.01 0.00 73 1020.2
20260507142016 59 0 1.0 7.0 0.00 0.01 0.00 76 1020.3
20260507141532 58 49 2.0 8.0 0.00 0.01 0.00 75 1020.4
20260507141016 58 0 1.0 9.0 0.00 0.01 0.00 77 1020.5
20260507140520 58 45 1.0 9.0 0.00 0.01 0.00 75 1020.4
20260507140034 57 48 2.0 9.0 0.00 0.01 0.00 78 1020.3
20260507135521 57 66 1.0 5.0 0.00 0.01 0.00 80 1020.4
20260507135015 56 0 1.0 4.0 0.00 0.01 0.00 81 1020.3
20260507134532 55 0 1.0 4.0 0.00 0.01 0.00 82 1020.2
20260507134014 55 84 0.0 3.0 0.00 0.01 0.00 83 1020.2
20260507133518 55 0 0.0 3.0 0.00 0.01 0.00 85 1020.5
20260507133031 54 5 1.0 3.0 0.00 0.01 0.00 86 1020.5
20260507132517 53 0 0.0 3.0 0.00 0.01 0.00 87 1020.6
20260507132015 52 355 0.0 3.0 0.00 0.01 0.00 89 1020.5
20260507131533 52 342 0.0 2.0 0.00 0.01 0.00 89 1020.6
20260507131019 51 0 0.0 2.0 0.00 0.01 0.00 90 1020.7
20260507130516 51 0 0.0 1.0 0.00 0.01 0.00 90 1020.7
20260507130052 50 0 0.0 1.0 0.00 0.01 0.00 90 1020.7
20260507125519 50 0 0.0 2.0 0.00 0.01 0.00 91 1020.7
20260507125017 50 0 0.0 2.0 0.00 0.01 0.00 91 1020.9
20260507124529 50 0 0.0 2.0 0.00 0.01 0.00 92 1020.9
20260507124015 49 0 0.0 3.0 0.00 0.01 0.00 92 1020.9
20260507123515 49 350 0.0 3.0 0.00 0.01 0.00 92 1020.8
20260507123030 49 346 0.0 3.0 0.00 0.01 0.00 92 1020.8
20260507122514 48 0 0.0 2.0 0.00 0.01 0.00 93 1020.9
20260507122016 48 344 0.0 2.0 0.00 0.01 0.00 92 1020.9
20260507121530 48 0 0.0 1.0 0.00 0.01 0.00 92 1020.9
20260507121016 47 0 0.0 1.0 0.00 0.01 0.00 92 1020.7
20260507120515 47 0 0.0 2.0 0.00 0.01 0.00 92 1020.7
20260507120036 47 344 0.0 2.0 0.00 0.01 0.00 92 1020.6
20260507115515 47 0 0.0 2.0 0.00 0.01 0.00 92 1020.5
20260507115016 47 0 0.0 1.0 0.00 0.01 0.00 92 1020.6
20260507114530 47 0 0.0 2.0 0.00 0.01 0.00 92 1020.8
20260507114015 47 0 0.0 2.0 0.00 0.01 0.00 92 1020.7
20260507113514 47 0 0.0 1.0 0.00 0.01 0.00 92 1020.6
20260507113030 47 0 0.0 1.0 0.00 0.01 0.00 92 1020.6
20260507112515 47 0 0.0 1.0 0.00 0.01 0.00 91 1020.6
20260507112015 48 0 0.0 1.0 0.00 0.01 0.00 91 1020.5
20260507111532 48 0 0.0 2.0 0.00 0.01 0.00 91 1020.3
20260507111014 48 0 0.0 2.0 0.00 0.01 0.00 91 1020.3
20260507110515 48 0 0.0 3.0 0.00 0.01 0.00 91 1020.4
20260507110033 48 340 0.0 3.0 0.00 0.01 0.00 91 1020.3
20260507105515 48 344 0.0 2.0 0.00 0.01 0.00 91 1020.1
20260507105015 48 0 0.0 3.0 0.00 0.01 0.00 91 1020.3
20260507104534 48 0 0.0 3.0 0.00 0.01 0.00 90 1020.3
20260507104016 49 350 0.0 3.0 0.00 0.01 0.00 90 1020.3
20260507103514 49 0 0.0 2.0 0.00 0.01 0.00 90 1020.2
20260507103033 49 0 0.0 2.0 0.00 0.01 0.00 90 1020.1
20260507102515 49 0 0.0 2.0 0.00 0.01 0.00 89 1019.9
20260507102015 49 0 0.0 2.0 0.00 0.01 0.00 89 1019.9
20260507101540 49 0 0.0 3.0 0.00 0.01 0.00 89 1019.7
20260507101018 50 0 0.0 4.0 0.00 0.01 0.00 89 1019.6
20260507100515 50 15 1.0 5.0 0.00 0.01 0.00 89 1019.4
20260507100045 50 36 1.0 5.0 0.00 0.01 0.00 89 1019.2
20260507095515 50 5 0.0 5.0 0.00 0.01 0.00 88 1019.1
20260507095015 50 322 1.0 5.0 0.00 0.01 0.00 88 1019.2
20260507094531 50 0 1.0 7.0 0.00 0.01 0.00 88 1019.2
20260507094015 51 352 0.0 8.0 0.00 0.01 0.00 88 1019.1
20260507093515 51 0 2.0 8.0 0.00 0.01 0.00 88 1018.9
20260507093030 51 360 1.0 5.0 0.00 0.01 0.00 88 1018.9
20260507092515 51 360 1.0 5.0 0.00 0.01 0.00 88 1018.9
20260507092016 51 355 1.0 5.0 0.00 0.01 0.00 88 1018.7
20260507091534 51 22 1.0 6.0 0.00 0.01 0.00 88 1018.6
20260507091015 51 329 0.0 6.0 0.00 0.01 0.00 88 1018.6
20260507090514 51 331 1.0 5.0 0.00 0.01 0.00 88 1018.6
20260507090033 51 346 2.0 5.0 0.00 0.01 0.00 88 1018.5
20260507085515 52 0 0.0 5.0 0.00 0.01 0.00 88 1018.4
20260507085015 52 0 1.0 5.0 0.00 0.01 0.00 89 1018.4
20260507084531 52 352 0.0 4.0 0.00 0.01 0.00 89 1018.4
20260507084015 52 347 1.0 4.0 0.00 0.01 0.00 89 1018.4
20260507083514 51 0 0.0 3.0 0.00 0.01 0.00 89 1018.5
20260507083031 51 347 0.0 3.0 0.00 0.01 0.00 89 1018.4
20260507082516 51 331 0.0 3.0 0.00 0.01 0.00 89 1018.5
20260507082014 51 319 1.0 3.0 0.00 0.01 0.00 89 1018.5
20260507081531 51 325 1.0 3.0 0.00 0.01 0.00 89 1018.5
20260507081015 51 339 0.0 2.0 0.00 0.01 0.00 90 1018.5